RH
51 49 40 37 39 36 25 12 20 12 10 18 26 32 35 38 40 45 47 49 57 56 68 84 72 67 54 51 63 88 74 94 100 71 68 77 79 79 95 95 96 89 95 94
55 53 51 36 42 40 28 16 22 19 17 23 37 33 35 36 36 37 41 45 47 47 71 73 85 66 46 49 69 86 75 85 89 50 55 56 84 80 88 96 92 99 97 90
58 59 55 48 36 45 32 33 42 24 21 23 27 31 31 33 39 43 45 51 48 50 65 59 69 55 45 52 65 59 64 92 76 88 69 76 75 74 88 86 99 98 93 95
60 63 61 56 47 42 40 41 48 40 53 38 32 38 37 33 36 47 46 49 47 68 82 77 71 61 66 64 68 65 78 83 60 60 56 54 57 73 86 94 92 86 79 97
72 65 68 63 53 46 50 46 48 44 54 48 37 39 59 30 38 44 59 64 47 82 72 53 51 83 88 89 74 88 83 72 79 79 51 49 49 46 60 88 91 92 94 94
87 78 72 70 62 51 60 64 65 43 59 46 55 73 59 49 40 35 37 53 73 90 73 54 50 58 64 68 78 92 96 97 94 69 51 50 63 61 79 84 89 86 94 74
92 94 80 77 71 59 63 68 69 65 84 64 73 51 46 45 40 52 50 50 57 44 56 51 65 70 72 75 79 74 98 100 98 96 59 44 42 52 56 74 75 86 89 88
91 98 88 80 77 75 65 69 77 77 90 87 70 57 52 46 48 57 59 54 53 58 48 82 75 73 59 70 74 92 79 100 96 76 93 48 54 56 66 76 54 82 78 81
93 94 86 85 86 82 78 76 79 83 87 84 78 56 53 73 86 75 60 52 49 43 75 82 69 68 46 58 65 85 86 90 84 95 77 53 49 78 64 64 79 73 68 79
98 99 99 94 95 92 84 84 86 91 98 79 84 74 79 64 63 85 67 55 50 46 90 85 76 65 66 61 83 88 100 100 97 97 93 67 68 70 66 53 41 66 63 58
99 94 95 100 97 96 94 87 89 98 99 93 85 85 79 66 62 83 68 72 73 82 86 83 88 83 80 79 67 79 60 86 89 86 72 48 62 75 52 44 56 48 50 51
100 98 97 98 100 98 98 93 91 99 100 90 91 92 90 94 86 74 67 67 51 68 92 95 95 87 96 82 71 47 74 62 70 64 56 47 52 30 27 43 26 35 44 42
99 100 100 100 100 100 100 96 95 99 99 90 79 76 79 78 79 81 76 84 76 63 64 85 97 99 87 87 88 79 70 66 77 56 62 66 44 37 35 38 37 37 30 32
95 100 99 100 100 100 100 98 99 100 99 99 74 85 92 88 87 69 83 76 78 65 64 60 100 99 68 88 79 85 63 67 79 80 64 49 35 34 41 39 37 39 26 28
100 96 98 99 100 100 100 100 99 100 95 98 89 99 97 76 77 84 84 93 96 94 89 99 98 81 86 83 93 98 71 75 79 74 49 51 44 29 22 38 38 35 29 32
100 100 100 100 100 99 100 96 98 88 91 99 99 99 98 90 82 88 90 97 100 94 95 95 91 86 81 100 100 67 52 45 39 40 48 46 40 38 28 29 31 38 42 41
100 98 100 100 100 100 100 98 100 99 99 98 96 96 99 83 84 97 97 97 99 97 91 98 94 92 83 100 100 54 54 50 51 52 54 61 52 50 31 35 39 43 41 41
100 100 100 100 100 100 99 100 100 100 98 98 100 95 96 92 93 100 96 98 98 97 94 97 97 93 95 100 74 63 54 54 55 56 56 55 62 59 49 48 48 45 40 37
100 100 100 100 100 100 99 100 100 100 98 97 98 99 94 84 91 94 93 96 99 91 97 95 92 96 99 78 67 57 51 57 59 60 56 48 54 59 58 55 51 53 52 54
100 100 99 99 100 100 99 98 97 94 98 97 97 90 99 85 88 93 95 95 99 100 91 88 99 93 67 53 50 50 49 51 62 71 66 56 51 47 49 54 60 63 64 64
100 99 100 100 99 98 98 97 97 96 100 94 96 90 95 92 96 96 96 97 97 99 89 96 98 97 76 50 45 42 43 50 52 49 62 71 61 55 56 60 66 61 59 63
99 99 99 98 98 97 97 96 97 96 93 87 97 94 94 97 96 95 96 95 96 98 89 98 100 76 58 96 86 65 49 48 48 50 50 63 63 59 60 57 59 62 62 58
100 100 100 98 98 97 98 99 98 96 84 98 98 98 95 97 95 96 96 97 96 93 97 94 87 55 93 96 96 94 96 92 75 57 55 56 59 62 58 52 52 54 54 53
98 99 98 97 98 95 90 90 93 96 75 86 88 96 94 96 97 94 97 92 95 97 100 93 89 98 97 96 95 93 85 83 90 84 63 62 65 60 57 78 94 60 61 66
98 100 98 98 84 81 83 90 98 97 75 85 96 96 93 97 96 96 95 97 97 91 84 93 97 96 95 94 96 94 92 89 92 95 83 94 96 90 96 96 93 72 72 78
99 100 99 100 98 100 100 99 99 98 94 97 96 96 96 96 95 98 95 96 93 92 95 99 95 95 97 94 92 92 90 91 94 98 98 97 97 96 96 96 96 89 86 90
100 99 100 96 96 93 97 100 100 98 97 97 96 96 89 94 98 98 89 96 94 97 97 96 96 97 96 95 93 93 96 96 97 98 98 96 96 96 96 96 96 96 97 94
Wind_Speed
33 37 38 34 30 29 19 5 4 14 13 8 6 3 2 2 3 4 3 2 3 3 3 3 3 4 4 8 8 4 3 4 3 7 5 5 5 0 3 4 6 2 2 4
31 35 38 36 32 31 20 4 4 8 12 4 3 1 2 3 2 3 1 2 3 2 3 2 3 3 2 11 8 4 4 3 4 8 5 5 4 5 1 1 2 1 3 4
29 32 36 38 33 28 15 4 4 5 9 6 3 3 1 2 4 3 3 3 2 2 3 4 4 3 1 9 9 10 1 1 5 5 7 3 6 6 4 4 3 3 4 5
26 30 32 36 37 27 11 9 4 5 4 5 3 2 1 3 3 3 4 2 4 4 3 4 4 2 5 3 9 7 4 1 2 8 12 6 8 4 1 2 5 4 4 4
25 27 29 32 35 32 32 6 6 3 4 5 3 1 3 2 3 4 3 3 2 6 5 8 5 2 2 5 5 4 5 2 5 4 5 6 7 7 4 3 3 2 3 6
23 26 27 28 30 33 21 17 11 3 2 3 2 3 4 4 1 5 7 8 1 1 12 18 19 16 10 7 1 2 3 3 4 5 5 4 5 6 4 3 5 5 1 7
21 23 23 25 28 28 24 22 13 4 3 0 3 1 4 5 5 5 4 6 5 4 9 20 12 15 14 12 10 9 1 2 2 4 5 3 5 2 4 6 7 7 5 6
20 22 20 22 23 24 23 22 18 7 3 3 6 4 6 12 8 6 7 8 8 11 11 4 5 1 1 2 4 3 6 3 2 1 2 6 6 4 5 6 6 6 8 6
19 21 18 19 21 22 22 20 21 11 4 4 5 4 4 2 3 6 3 4 8 5 1 3 2 3 1 3 2 6 4 5 3 2 1 5 6 3 6 6 4 7 12 10
18 19 21 17 20 21 20 18 20 16 5 5 5 4 3 3 2 2 4 3 2 1 1 1 1 3 2 2 2 6 2 1 4 3 4 8 5 9 10 5 6 14 16 15
18 19 23 19 21 22 19 19 20 19 8 18 8 8 10 8 5 3 2 3 1 2 2 2 3 2 3 0 4 5 6 5 4 2 1 7 14 8 6 5 10 13 14 14
19 21 22 23 23 20 21 18 20 22 14 13 23 18 17 17 16 7 4 2 2 4 3 1 2 2 0 3 4 1 2 6 4 8 6 2 32 8 18 9 6 8 11 11
21 22 24 26 25 19 20 18 19 21 13 18 10 8 7 11 14 14 6 5 5 2 2 3 2 3 3 3 5 1 4 5 3 3 4 7 22 28 24 17 16 16 14 13
22 24 28 29 26 21 18 17 17 17 8 5 8 16 11 13 12 15 20 18 6 2 1 3 2 2 7 3 3 4 6 6 4 6 13 22 22 22 22 21 22 19 14 14
26 26 28 31 26 22 19 18 20 20 8 5 11 20 12 2 6 10 13 17 16 7 3 2 3 4 0 4 2 4 10 7 5 6 8 8 9 9 7 15 19 13 13 12
28 30 30 31 25 21 13 6 6 6 9 6 4 6 5 4 2 4 6 9 9 8 5 5 5 3 2 0 3 12 21 19 21 7 7 9 11 11 10 9 10 11 13 13
28 29 31 27 23 19 12 6 6 9 8 4 8 4 2 2 1 3 4 7 6 7 5 5 3 4 6 2 4 8 3 14 20 24 22 19 22 21 13 13 13 14 16 14
30 30 27 21 20 18 17 21 19 14 5 5 2 5 3 3 2 3 6 5 7 8 5 3 4 4 5 5 17 22 21 19 21 20 19 24 25 18 14 13 15 17 16 15
26 23 22 20 15 11 13 14 8 9 8 4 5 3 3 4 4 3 5 4 2 3 3 4 5 2 6 8 13 20 17 13 22 22 19 16 18 20 20 21 20 20 20 17
25 24 14 10 9 14 7 5 4 7 6 6 7 6 3 7 6 3 3 3 2 2 3 4 2 4 22 25 22 20 18 18 18 23 23 18 18 16 13 16 17 17 16 13
30 16 12 12 12 10 5 5 5 6 4 8 8 13 3 6 3 3 4 2 2 1 3 2 2 3 5 17 18 18 17 16 17 17 18 20 18 17 20 17 16 11 9 11
22 10 12 14 8 5 4 3 4 5 5 8 8 9 10 5 7 3 4 2 1 5 4 1 3 4 11 20 23 21 18 19 20 18 17 15 17 17 15 11 10 12 13 12
18 7 8 8 7 4 8 9 4 3 8 12 10 5 7 6 7 3 2 2 4 4 1 4 4 8 20 25 25 26 25 25 25 24 20 16 18 16 14 12 11 13 11 9
8 10 6 6 5 7 6 4 5 8 10 22 19 8 5 5 4 4 3 3 2 2 3 5 3 15 22 28 30 32 33 31 31 27 22 17 17 16 14 15 14 13 11 11
8 8 6 8 11 5 10 12 11 10 15 22 10 6 7 2 2 3 0 1 5 6 4 1 17 26 29 29 29 33 35 35 32 27 22 23 21 19 21 18 14 15 14 15
7 9 5 4 6 6 10 16 11 16 21 12 6 5 3 4 4 4 7 4 6 1 4 18 28 28 25 28 31 31 31 29 27 25 24 24 22 22 20 18 15 16 17 18
7 8 18 17 3 8 15 18 14 20 22 4 5 6 8 4 3 4 4 2 3 12 16 25 23 22 29 31 30 28 27 25 22 20 20 20 20 20 18 18 15 17 18 20
Wind_Direction
16 15 15 12 12 12 13 39 50 3 11 42 59 98 166 205 223 206 223 220 247 248 288 288 301 312 225 14 357 344 268 155 295 238 255 183 127 266 115 101 305 49 150 272
17 15 17 16 14 11 15 46 13 13 23 63 5 213 233 218 217 215 217 253 196 238 246 351 228 279 266 28 21 352 315 354 349 351 351 2 29 346 255 129 68 16 108 270
12 12 14 18 18 14 18 23 17 25 53 78 102 21 251 289 214 243 200 248 263 297 289 209 278 286 312 0 7 360 83 100 148 197 229 231 325 340 344 89 80 272 215 280
6 7 10 14 20 23 33 29 52 2 330 360 6 154 213 297 307 229 219 283 220 161 305 306 244 299 321 1 5 11 81 168 313 253 257 261 270 274 347 99 210 149 249 241
354 360 6 10 17 25 38 39 355 333 292 303 320 31 252 254 293 197 248 183 198 170 198 196 266 145 165 236 332 27 2 281 346 292 275 252 267 267 269 193 222 262 271 276
346 349 358 7 14 21 33 28 1 349 319 326 32 230 225 242 145 249 227 207 134 238 238 254 263 262 245 241 104 318 52 23 23 280 352 350 336 232 204 243 210 172 205 233
349 345 348 1 9 14 18 21 14 354 284 165 230 247 251 250 236 224 234 219 144 250 295 299 270 252 257 255 247 218 100 71 97 272 346 8 257 170 161 198 234 219 265 256
347 349 346 352 357 4 8 12 19 341 280 259 290 305 278 292 291 255 263 260 253 289 314 7 349 345 220 269 223 172 155 113 321 77 232 289 328 219 192 175 282 209 223 268
340 341 340 339 343 351 357 360 3 2 285 251 278 302 283 249 300 325 242 263 278 290 42 52 25 281 262 283 111 68 75 90 132 37 149 229 233 230 139 106 296 214 198 245
327 334 336 325 337 340 343 348 352 1 304 276 266 243 249 252 253 227 292 306 287 291 54 36 232 282 146 283 231 207 195 223 189 211 239 284 225 157 136 79 244 190 210 238
311 317 326 317 325 330 328 335 339 348 308 298 266 270 250 250 224 164 278 356 262 34 65 128 255 161 245 289 229 196 185 157 214 82 355 293 151 123 168 202 159 197 223 245
299 309 318 313 314 318 321 323 328 333 310 285 300 285 272 262 260 254 238 255 242 214 87 353 59 291 43 189 275 170 289 194 192 178 224 202 181 220 211 197 206 236 258 268
293 295 302 310 302 300 313 317 321 328 319 306 294 292 278 266 259 249 236 227 219 212 170 168 205 244 128 230 240 289 274 182 224 28 286 230 235 243 247 248 260 286 282 269
292 287 305 293 301 294 296 302 308 310 308 288 280 296 279 280 262 242 229 236 222 209 211 262 178 212 196 247 253 211 210 141 199 265 282 282 278 267 258 253 260 260 266 264
288 288 293 293 298 290 286 290 294 292 257 275 291 294 296 301 260 238 230 233 239 240 236 184 233 238 12 309 345 251 191 196 169 229 239 232 283 298 299 246 253 259 259 263
290 288 279 281 285 282 275 277 279 233 223 307 301 294 292 298 269 228 212 217 217 211 213 229 243 244 240 338 254 257 223 227 242 264 272 261 284 288 270 251 244 254 262 267
281 283 290 281 266 256 243 242 252 262 284 262 292 284 273 302 282 175 192 202 202 219 246 234 249 205 212 199 245 254 268 257 265 265 271 278 274 267 260 260 269 271 269 264
275 273 268 246 233 242 253 258 262 270 254 223 256 277 281 212 195 192 186 196 209 219 242 243 210 188 231 253 247 263 278 288 284 278 275 275 280 279 260 259 283 278 268 270
270 260 223 214 223 233 242 240 239 225 208 218 205 205 252 183 193 207 196 210 235 224 241 245 172 223 232 241 290 293 299 295 299 300 297 291 269 272 274 274 275 279 281 281
271 228 190 214 212 214 198 197 188 176 202 229 237 213 249 186 181 209 193 184 238 253 246 188 191 256 275 290 301 305 309 304 295 286 288 293 284 281 282 282 286 285 287 281
205 196 203 195 183 177 196 176 182 177 247 218 226 209 189 208 157 199 209 198 210 315 264 142 267 269 262 336 334 333 323 318 322 301 283 278 276 280 294 292 282 279 280 288
212 191 171 161 188 189 190 201 155 204 228 193 185 204 200 204 197 161 178 185 72 250 146 72 265 253 344 350 348 349 341 330 328 325 311 279 269 281 285 284 273 272 286 288
169 186 172 175 172 201 195 192 204 202 199 189 174 166 167 166 184 188 135 169 225 130 196 237 233 308 344 349 351 347 348 340 330 322 308 284 272 273 276 279 291 291 276 281
184 177 204 202 185 233 197 190 156 165 181 175 164 137 154 165 165 193 166 231 111 249 241 237 257 350 350 348 345 343 338 333 326 315 297 282 276 277 272 282 282 270 268 281
190 200 226 219 221 217 198 175 148 158 173 154 140 117 152 152 196 199 129 267 243 212 230 231 6 351 344 343 339 330 326 323 319 312 287 281 273 268 275 275 268 268 273 285
215 224 235 217 187 185 179 195 181 178 168 149 129 126 144 215 182 168 216 189 224 105 357 350 347 350 348 337 334 331 326 324 323 320 303 292 280 280 281 275 267 271 281 293
217 235 222 209 231 184 202 211 210 190 161 170 148 177 207 127 187 221 194 240 32 333 337 339 353 349 336 336 336 337 337 335 332 324 313 300 293 290 287 286 284 284 291 299